Date,TemperatureHighF,TemperatureAvgF,TemperatureLowF,DewpointHighF,DewpointAvgF,DewpointLowF,HumidityHigh,HumidityAvg,HumidityLow,PressureMaxIn,PressureMinIn,WindSpeedMaxMPH,WindSpeedAvgMPH,GustSpeedMaxMPH,PrecipitationSumIn
2013-1-1,50,47,43,50,43,33,98,80,48,29.66,29.49,2,0,4,0.22
2013-1-2,50,46,42,50,44,39,99,91,76,29.75,29.47,2,0,4,0.31
2013-1-3,47,41,31,39,37,28,90,82,65,29.82,29.70,2,0,2,0.01
2013-1-4,54,39,26,35,27,23,92,60,23,29.88,29.74,3,0,4,0.00
2013-1-5,53,34,26,34,18,-100,76,56,33,29.95,29.83,2,0,3,0.00
2013-1-6,53,43,36,42,37,-100,93,77,56,29.81,29.61,2,0,4,0.01
2013-1-7,58,41,29,40,33,27,92,71,36,29.99,29.73,2,0,4,0.01
2013-1-8,61,44,30,45,38,27,88,74,44,30.02,29.92,2,0,3,0.00
2013-1-9,69,51,36,54,45,34,96,77,48,30.01,29.53,2,0,3,0.00
2013-1-10,69,55,47,52,48,41,95,72,42,30.09,29.97,2,0,3,0.00
2013-1-11,51,48,42,49,44,37,99,86,51,29.99,29.67,1,0,2,0.24
2013-1-12,75,58,49,67,56,49,99,92,67,29.73,29.61,2,0,3,0.01
2013-1-13,78,64,54,66,59,53,99,82,52,29.70,29.55,6,0,9,0.01
2013-1-14,71,57,58,65,42,-100,91,74,74,29.71,29.59,2,0,4,0.00
2013-1-15,65,48,46,62,47,45,97,93,82,29.79,29.56,3,0,5,0.01
2013-1-16,50,47,44,50,46,44,99,98,97,29.64,29.49,2,0,4,0.18
2013-1-17,51,47,33,51,47,32,99,98,92,29.72,28.64,4,0,9,0.86
2013-1-18,52,37,29,40,31,26,99,75,32,30.09,29.09,2,0,4,0.44
2013-1-19,58,39,26,37,30,22,90,65,26,30.06,29.22,4,0,8,0.01
2013-1-20,69,48,35,43,36,31,84,60,22,29.71,29.52,3,0,6,0.00
2013-1-21,64,45,29,43,32,25,94,56,23,29.64,29.38,4,0,6,0.00
2013-1-22,43,35,27,26,13,4,52,28,18,29.84,29.47,3,0,7,0.00
2013-1-23,43,31,19,20,13,4,62,35,19,29.94,29.56,3,0,6,0.00
2013-1-24,41,33,25,26,16,3,73,41,18,30.07,29.48,4,0,9,0.00
2013-1-25,27,25,21,24,14,5,84,56,27,30.09,29.62,2,0,4,0.02
2013-1-26,44,32,27,38,28,24,93,84,61,29.96,29.62,1,0,2,0.01
2013-1-27,46,34,24,34,28,22,94,73,46,30.15,29.95,2,0,5,0.01
2013-1-28,52,43,33,47,37,28,86,74,62,30.07,29.63,4,0,6,0.01
2013-1-29,77,59,45,62,53,44,95,77,48,29.80,29.58,3,0,6,0.01
2013-1-30,73,68,60,66,63,57,91,82,69,29.63,28.92,11,3,21,0.24
2013-1-31,64,48,34,61,34,23,91,50,21,29.57,28.98,6,2,12,0.34
2013-2-1,44,37,26,32,18,5,61,36,18,29.94,29.40,4,1,10,0.01
2013-2-2,47,35,19,37,16,8,76,37,19,29.96,29.54,4,0,8,0.00
2013-2-3,52,43,33,38,33,25,89,62,32,29.57,29.41,3,0,8,0.00
2013-2-4,51,39,27,30,26,21,79,53,29,29.70,29.50,4,0,5,0.00
2013-2-5,66,48,38,41,36,30,77,55,26,29.57,29.39,3,0,8,0.00
2013-2-6,69,48,32,63,33,28,97,54,13,29.83,29.48,3,0,6,0.00
2013-2-7,50,44,37,43,39,32,98,80,52,29.88,29.48,2,0,4,0.35
2013-2-8,59,47,40,50,42,32,99,83,54,29.61,28.68,2,0,7,0.70
2013-2-9,140,39,28,32,27,-100,88,58,19,34.87,20.03,238,1,238,0.01
2013-2-10,59,41,26,41,27,22,83,54,20,30.04,29.76,4,0,7,0.01
2013-2-11,64,58,45,61,55,41,97,89,81,29.76,29.48,4,1,10,0.05
2013-2-12,65,54,45,55,41,31,98,57,20,29.65,29.45,2,0,4,0.01
2013-2-13,50,46,43,48,45,39,99,92,63,29.51,28.95,2,0,4,0.09
2013-2-14,54,42,31,39,35,29,98,72,42,29.62,29.39,3,0,5,0.01
2013-2-15,67,45,29,45,35,28,97,65,24,29.65,29.10,3,0,4,0.00
2013-2-16,46,37,31,38,34,28,97,83,62,29.52,29.38,1,0,4,0.34
2013-2-17,41,31,24,28,16,9,84,45,19,29.84,29.47,5,1,11,0.04
2013-2-18,55,36,19,29,21,14,82,49,18,29.97,29.57,4,1,8,0.02
2013-2-19,52,44,34,51,40,28,97,81,56,29.81,29.42,4,0,9,0.11
2013-2-20,57,42,29,39,26,20,99,48,18,29.69,29.51,3,0,6,0.01
2013-2-21,60,42,26,28,24,19,73,40,18,29.81,29.66,2,0,4,0.00
2013-2-22,44,37,33,36,33,27,94,83,39,29.91,29.67,2,0,2,0.45
2013-2-23,44,36,36,43,26,-100,99,88,94,29.67,29.37,2,0,2,0.71
2013-2-24,67,50,39,51,41,30,99,70,19,29.59,29.34,4,0,6,0.11
2013-2-25,44,39,34,33,28,24,75,56,43,29.78,29.55,3,0,6,0.01
2013-2-26,59,43,36,58,36,-100,99,83,59,29.69,29.10,2,0,5,0.65
2013-2-27,63,50,40,45,43,38,98,73,35,29.34,28.87,4,1,7,0.01
2013-2-28,52,42,33,40,34,27,99,70,34,29.41,28.87,3,0,6,0.01
2013-3-1,54,40,28,35,31,25,87,63,33,29.47,29.38,2,0,5,0.00
2013-3-2,52,39,28,34,28,21,86,59,32,29.48,29.03,2,0,4,0.00
2013-3-3,51,37,27,28,22,19,63,46,25,29.53,29.35,4,0,6,0.00
2013-3-4,54,37,23,24,20,16,66,42,18,29.67,29.48,3,0,7,0.00
2013-3-5,50,43,35,46,37,24,97,74,43,29.63,29.07,2,0,7,0.24
2013-3-6,50,44,38,48,35,30,99,67,42,29.58,29.06,5,1,8,0.01
2013-3-7,56,43,32,36,32,26,77,55,34,29.79,29.53,4,0,7,0.01
2013-3-8,60,44,30,34,28,24,73,46,21,29.84,29.65,4,0,9,0.00
2013-3-9,68,48,30,36,31,25,80,48,18,29.89,29.74,2,0,4,0.00
2013-3-10,72,51,31,40,31,26,92,46,12,29.88,29.75,3,0,5,0.00
2013-3-11,73,56,40,56,46,29,85,62,33,29.80,29.48,6,1,10,0.00
2013-3-12,75,63,51,65,56,37,96,74,46,29.50,29.01,6,1,10,0.33
2013-3-13,60,48,35,38,31,24,85,45,21,29.69,29.50,5,1,8,0.01
2013-3-14,57,42,30,28,23,19,57,37,19,29.80,29.65,4,1,11,0.00
2013-3-15,65,47,27,39,31,22,80,49,22,29.74,29.45,3,0,8,0.00
2013-3-16,81,63,49,54,47,38,72,49,28,29.45,28.83,5,1,11,0.00
2013-3-17,64,54,43,54,47,40,92,74,54,29.72,29.39,4,0,5,0.00
2013-3-18,45,42,39,43,41,38,99,95,85,29.75,29.41,2,0,4,0.39
2013-3-19,70,53,41,51,38,21,99,61,13,29.57,29.02,4,1,9,0.37
2013-3-20,58,48,39,28,22,16,49,26,18,29.67,29.33,3,0,5,0.00
2013-3-21,50,41,32,33,23,13,76,41,20,29.53,28.90,3,0,8,0.00
2013-3-22,55,39,23,29,20,13,62,36,18,29.64,29.51,3,0,6,0.00
2013-3-23,58,46,38,35,31,27,71,47,27,29.60,29.08,2,0,2,0.00
2013-3-24,43,39,36,40,37,30,99,89,69,29.49,29.12,4,0,8,0.61
2013-3-25,50,41,36,41,34,28,99,71,35,29.38,29.10,4,1,11,0.01
2013-3-26,52,43,32,35,31,27,72,53,36,29.66,29.01,3,0,6,0.01
2013-3-27,56,44,32,32,28,24,74,46,21,29.78,29.66,5,1,7,0.00
2013-3-28,60,44,28,33,28,23,79,48,21,29.85,29.70,4,0,9,0.00
2013-3-29,63,46,29,37,30,25,84,48,19,29.89,29.73,4,0,7,0.00
2013-3-30,70,55,41,47,40,34,79,52,22,29.80,29.63,4,0,5,0.00
2013-3-31,70,58,49,61,53,45,98,80,60,29.66,29.36,4,0,8,0.00
2013-4-1,76,62,54,59,50,42,99,63,23,29.52,29.10,4,0,6,0.00
2013-4-2,64,51,37,42,34,29,78,44,18,29.71,29.51,3,0,5,0.00
2013-4-3,64,51,43,51,30,24,67,34,16,29.85,29.67,2,0,6,0.00
2013-4-4,49,43,40,41,36,28,99,71,41,29.90,29.46,3,0,5,0.00
2013-4-5,68,50,40,52,45,40,99,83,47,29.57,29.42,2,0,3,0.00
2013-4-6,70,55,40,44,38,30,99,51,19,29.82,29.56,2,0,5,0.00
2013-4-7,75,57,37,50,43,33,90,54,28,29.84,29.66,4,0,8,0.00
2013-4-8,82,67,52,62,56,50,96,62,35,29.73,29.60,4,1,8,0.00
2013-4-9,88,73,57,64,60,56,96,61,32,29.74,29.60,4,0,7,0.00
2013-4-10,90,76,62,66,62,59,88,59,31,29.66,29.49,4,1,8,0.00
2013-4-11,84,73,62,69,63,59,91,68,43,29.55,29.30,5,1,10,0.00
2013-4-12,84,73,65,72,66,53,96,74,44,29.36,28.88,5,1,11,0.00
2013-4-13,78,65,51,54,46,42,69,44,21,29.55,28.94,4,0,9,0.00
2013-4-14,85,65,46,56,48,43,96,55,18,29.65,29.55,5,0,9,0.00
2013-4-15,72,66,60,61,59,55,91,72,58,29.75,29.56,2,0,4,0.00
2013-4-16,80,67,57,66,61,56,98,77,48,29.85,29.74,2,0,4,0.00
2013-4-17,84,71,58,68,64,57,99,75,47,29.79,29.65,3,0,5,0.00
2013-4-18,82,71,60,66,62,58,95,69,47,29.75,29.55,4,1,9,0.00
2013-4-19,85,72,66,71,67,63,97,80,52,29.60,29.05,9,1,15,0.00
2013-4-20,66,55,47,65,42,-100,97,61,30,29.82,29.37,4,0,11,0.00
2013-4-21,65,53,42,47,43,40,99,65,40,30.03,29.58,4,0,7,0.00
2013-4-22,65,52,38,47,42,34,89,63,39,30.03,29.81,2,0,5,0.00
2013-4-23,68,56,48,54,50,46,96,77,50,29.83,29.67,2,0,4,0.00
2013-4-24,79,64,48,61,56,48,99,73,42,29.71,29.52,4,1,8,0.00
2013-4-25,73,62,52,58,50,44,90,60,29,29.82,29.57,2,0,6,0.00
2013-4-26,75,61,47,54,47,38,99,60,18,29.97,29.82,2,0,4,0.00
2013-4-27,75,64,52,57,50,46,81,56,30,29.93,29.81,4,0,7,0.00
2013-4-28,63,59,56,57,53,47,99,77,59,29.82,29.65,2,0,3,0.00
2013-4-29,73,64,56,67,62,56,99,92,68,29.66,29.51,2,0,4,0.00
2013-4-30,69,62,56,63,60,55,99,91,74,29.73,29.54,2,0,3,0.00
2013-5-1,62,59,55,60,57,-100,99,92,85,29.87,29.71,2,0,8,0.00
2013-5-2,66,60,54,61,57,54,97,88,78,29.87,29.81,2,0,5,0.00
2013-5-3,71,60,50,59,53,46,99,75,46,29.82,29.71,2,0,4,0.00
2013-5-4,68,58,50,56,51,46,88,74,55,29.76,29.57,4,0,8,0.00
2013-5-5,61,57,51,58,53,48,89,84,76,29.65,29.48,2,0,6,0.00
2013-5-6,68,60,58,66,57,-100,99,93,88,29.55,28.65,3,0,4,0.00
2013-5-7,72,57,51,63,48,-100,99,78,42,29.50,29.36,3,0,5,0.00
2013-5-8,73,62,53,62,58,52,99,83,57,29.57,29.48,3,0,6,0.22
2013-5-9,80,67,55,67,60,-100,99,77,44,29.62,29.49,2,0,4,0.22
2013-5-10,87,73,57,67,62,56,98,68,40,29.62,29.45,4,0,8,0.01
2013-5-11,84,75,69,68,65,61,89,68,47,29.51,29.30,4,0,8,0.00
2013-5-12,74,67,57,65,55,41,92,60,31,29.58,28.63,2,0,5,0.00
2013-5-13,67,58,46,46,42,39,83,51,29,29.73,29.53,3,0,4,0.00
2013-5-14,72,58,41,50,44,40,93,56,29,29.82,29.58,3,0,6,0.00
2013-5-15,88,71,56,67,58,46,78,58,39,29.63,29.41,3,0,7,0.00
2013-5-16,86,74,62,68,64,60,93,67,41,29.53,29.40,3,0,7,0.00
2013-5-17,88,76,63,70,65,61,96,67,37,29.63,29.53,4,0,4,0.00
2013-5-18,80,71,64,72,67,62,98,85,61,29.70,29.57,4,0,6,0.61
2013-5-19,80,70,66,73,65,-100,99,88,63,29.70,29.56,6,0,8,0.64
2013-5-20,77,70,68,73,69,-100,99,95,84,29.66,29.57,3,0,7,0.77
2013-5-21,86,74,69,76,71,68,97,87,65,29.61,29.50,3,0,6,0.01
2013-5-22,85,75,69,72,70,0,95,80,55,29.59,29.45,21,0,42,0.00
2013-5-23,83,75,70,72,70,68,93,82,62,29.51,28.68,4,0,5,0.00
2013-5-24,74,66,53,69,57,45,97,69,38,29.74,29.31,4,0,8,0.00
2013-5-25,73,59,43,56,47,42,95,62,28,29.83,29.60,2,0,5,0.00
2013-5-26,73,61,49,57,51,45,85,63,36,29.84,29.69,2,0,4,0.00
2013-5-27,80,67,51,61,56,50,97,64,32,29.84,29.71,4,0,8,0.00
2013-5-28,84,74,62,70,65,59,93,70,53,29.81,29.65,5,0,8,0.00
2013-5-29,85,75,63,69,66,61,96,69,48,29.80,29.66,4,0,10,0.00
2013-5-30,87,76,63,71,67,62,97,70,42,29.83,29.68,3,0,5,0.00
2013-5-31,87,78,67,73,69,65,96,71,46,29.78,29.60,5,0,7,0.00
2013-6-1,88,79,68,73,69,67,94,69,45,29.69,29.51,4,0,6,0.01
2013-6-2,87,78,69,72,69,66,92,70,45,29.61,29.08,4,1,7,0.01
2013-6-3,82,74,67,76,71,66,98,90,70,29.51,29.37,2,0,6,0.33
2013-6-4,80,71,65,70,66,65,99,83,57,29.64,29.48,2,0,4,0.01
2013-6-5,81,74,66,66,63,59,92,64,42,29.68,29.56,3,0,6,0.00
2013-6-6,78,69,66,74,61,-100,97,82,59,29.58,29.35,2,0,8,0.17
2013-6-7,74,71,69,74,70,69,99,98,97,29.40,28.85,2,0,4,3.25
2013-6-8,82,73,68,74,70,-100,99,89,68,29.65,29.34,2,0,4,0.09
2013-6-9,87,76,68,76,70,-100,99,81,55,29.71,29.60,2,0,6,0.01
2013-6-10,84,76,72,78,73,70,96,91,73,29.65,29.45,4,1,8,0.19
2013-6-11,85,77,71,73,70,68,94,76,51,29.50,29.40,3,0,6,0.02
2013-6-12,89,78,66,77,71,-100,98,78,55,29.53,29.41,2,0,4,0.00
2013-6-13,95,79,68,80,72,-100,96,78,38,29.41,28.80,4,0,9,0.09
2013-6-14,80,71,60,68,63,60,99,74,47,29.56,29.28,2,0,5,0.02
2013-6-15,84,65,59,68,48,-100,98,67,45,29.68,29.56,2,0,5,0.00
2013-6-16,86,75,63,73,65,-100,87,66,53,29.69,29.55,3,0,6,0.00
2013-6-17,86,78,71,76,71,66,85,75,59,29.59,29.48,3,0,5,0.00
2013-6-18,85,75,70,76,72,69,97,85,62,29.52,29.30,4,0,7,0.40
2013-6-19,81,73,66,72,68,-100,99,82,61,29.66,29.38,2,0,4,0.40
2013-6-20,83,70,65,68,58,-100,97,69,48,29.78,29.67,2,0,4,0.00
2013-6-21,83,71,58,67,61,-100,94,66,39,29.81,29.69,2,0,3,0.00
2013-6-22,82,74,70,74,71,66,93,86,71,29.75,29.60,2,0,6,0.04
2013-6-23,86,72,70,76,62,-100,98,81,62,29.76,29.66,3,0,6,0.02
2013-6-24,86,77,72,77,71,-100,98,84,63,29.76,29.61,4,0,6,0.01
2013-6-25,89,77,70,78,72,-100,95,82,59,29.68,29.51,3,0,6,0.00
2013-6-26,89,77,70,78,72,67,96,84,56,29.59,28.67,4,0,8,0.17
2013-6-27,89,74,68,79,66,-100,99,81,63,29.48,29.26,4,0,7,0.17
2013-6-28,91,77,72,78,68,-100,96,78,54,29.30,28.76,4,0,10,0.65
2013-6-29,85,64,69,77,45,-100,99,72,67,29.28,29.16,3,0,4,1.00
2013-6-30,87,77,71,78,74,70,98,88,65,29.42,29.00,3,0,6,0.17
2013-7-1,82,75,70,77,73,70,98,92,79,29.55,29.39,4,0,7,0.35
2013-7-2,77,74,72,75,72,-100,98,95,90,29.73,29.54,4,0,7,0.13
2013-7-3,85,78,74,79,75,72,98,90,72,29.79,29.70,4,0,8,0.05
2013-7-4,88,81,74,78,74,71,97,78,51,29.83,29.68,4,0,7,0.02
2013-7-5,89,81,73,78,75,72,96,78,56,29.83,29.71,4,0,6,0.00
2013-7-6,88,80,74,78,74,72,95,82,59,29.81,29.67,4,0,8,0.02
2013-7-7,89,80,71,77,74,69,97,81,60,29.74,29.57,4,0,7,0.01
2013-7-8,88,80,73,78,75,71,93,83,62,29.72,29.63,4,0,7,0.00
2013-7-9,87,77,73,80,74,71,97,88,66,29.71,29.61,3,0,6,0.00
2013-7-10,88,78,74,79,74,-100,96,87,66,29.66,29.50,3,0,6,0.02
2013-7-11,83,75,73,77,72,-100,97,92,76,29.53,29.05,3,0,4,0.33
2013-7-12,78,67,72,75,57,-100,99,86,85,29.57,29.41,916,0,916,0.13
2013-7-13,78,43,72,77,0,-100,97,54,92,29.72,29.55,916,0,916,0.13
2013-7-14,88,66,70,79,46,-100,98,71,57,29.84,29.69,4,0,7,0.02
2013-7-15,89,79,70,80,74,70,99,83,54,29.87,29.79,2,0,4,0.01
2013-7-16,92,77,70,80,67,-100,99,76,52,29.83,29.71,4,0,8,0.02
2013-7-17,92,60,75,82,23,-100,96,50,50,29.77,29.63,2,0,6,0.02
2013-7-18,93,73,75,81,56,-100,97,70,52,29.69,29.58,2,0,4,0.00
2013-7-19,90,80,76,80,71,-100,96,76,59,29.65,29.53,2,0,6,0.00
2013-7-20,89,81,75,78,76,73,92,82,63,29.59,29.47,3,0,6,0.00
2013-7-21,88,79,74,80,75,72,96,85,66,29.55,29.44,4,0,5,0.00
2013-7-22,87,79,73,78,75,72,99,87,64,29.50,29.37,3,0,5,0.01
2013-7-23,89,81,75,78,75,73,93,79,59,29.40,28.90,3,0,7,0.01
2013-7-24,92,81,72,78,74,71,97,77,48,29.39,29.27,2,0,3,0.01
2013-7-25,80,74,69,73,71,68,97,86,70,29.58,29.36,1,0,2,0.04
2013-7-26,85,75,64,71,67,63,99,76,49,29.66,29.56,4,0,6,0.00
2013-7-27,87,76,69,75,70,68,98,82,49,29.60,29.44,5,0,9,0.14
2013-7-28,87,77,70,76,73,69,99,84,56,29.56,29.43,3,0,5,0.14
2013-7-29,85,77,70,74,71,68,98,79,52,29.69,29.54,2,0,2,0.00
2013-7-30,87,76,64,73,68,63,99,74,45,29.77,29.64,4,0,5,0.00
2013-7-31,85,78,71,77,73,69,96,82,66,29.69,29.51,3,0,5,0.04
2013-8-1,84,75,71,77,73,69,98,92,73,29.57,29.41,3,0,4,0.11
2013-8-2,88,77,68,76,71,-100,99,81,10,29.57,29.45,2,0,4,0.05
2013-8-3,90,80,73,79,75,72,99,86,56,29.57,29.44,4,0,8,0.35
2013-8-4,84,75,-8,77,70,-13,99,82,51,29.58,29.08,2,0,6,0.37
2013-8-5,84,75,66,70,67,64,99,72,46,29.64,29.50,4,0,6,0.00
2013-8-6,83,75,68,73,70,66,99,80,58,29.61,29.50,4,0,8,0.18
2013-8-7,86,78,70,75,71,69,95,77,54,29.65,29.52,4,0,7,0.01
2013-8-8,89,80,72,77,74,71,96,79,53,29.62,29.50,3,0,5,0.00
2013-8-9,91,82,75,79,76,74,97,80,58,29.61,29.48,4,0,7,0.00
2013-8-10,95,81,74,80,76,73,99,85,52,29.65,29.55,3,0,4,0.17
2013-8-11,91,81,72,79,76,72,99,83,59,29.66,29.53,3,0,5,0.01
2013-8-12,92,82,74,80,75,-100,99,79,49,29.59,29.43,2,0,4,0.01
2013-8-13,89,79,72,80,75,-100,99,87,61,29.51,29.29,3,0,5,0.07
2013-8-14,77,73,64,74,69,60,99,84,71,29.63,29.37,2,0,3,0.01
2013-8-15,78,67,60,64,61,59,96,78,48,29.71,29.57,3,0,5,0.00
2013-8-16,71,66,60,64,62,60,99,85,69,29.73,29.62,2,0,3,0.00
2013-8-17,72,68,64,71,67,63,99,96,89,29.73,29.65,2,0,3,0.17
2013-8-18,82,57,70,74,29,-100,98,64,69,29.75,29.65,2,0,4,0.08
2013-8-19,74,71,68,73,70,67,99,96,89,29.75,29.60,2,0,3,0.25
2013-8-20,83,70,69,76,60,-100,99,83,72,29.73,29.61,4,0,4,0.01
2013-8-21,88,65,71,78,50,-100,99,79,63,29.77,29.63,4,0,5,0.04
2013-8-22,89,73,71,79,60,-100,98,73,50,29.70,29.50,916,0,916,0.01
2013-8-23,88,78,69,77,73,68,99,83,55,29.61,29.47,2,0,4,0.00
2013-8-24,84,74,66,68,65,61,95,70,41,29.84,29.61,2,0,4,0.00
2013-8-25,81,70,60,68,62,-100,99,73,42,29.94,29.79,2,0,4,0.00
2013-8-26,84,69,55,68,60,-100,99,73,38,29.87,29.62,4,0,6,0.00
2013-8-27,90,39,62,74,-7,-100,94,49,49,29.67,29.47,916,0,916,0.00
2013-8-28,84,18,71,78,-59,-100,99,21,75,29.54,29.38,916,0,916,0.00
2013-8-29,87,16,77,76,-66,-100,88,14,58,29.56,29.34,916,0,916,0.00
2013-8-30,88,21,66,71,-55,-100,99,18,45,29.61,29.44,916,0,916,0.00
2013-8-31,89,34,70,76,-29,-100,99,28,51,29.53,29.38,916,0,916,0.00
2013-9-1,92,39,72,79,-16,-100,97,37,55,29.45,29.31,916,0,916,1.26
2013-9-2,89,72,70,79,61,-100,98,79,61,29.44,29.31,3,0,4,1.28
2013-9-3,90,69,73,79,51,-100,99,72,60,29.49,28.98,916,0,916,0.00
2013-9-4,85,9,70,74,-79,-100,95,10,61,29.63,29.45,916,0,916,0.00
2013-9-5,89,62,67,75,32,-100,99,54,36,29.65,29.55,916,0,916,0.00
2013-9-6,85,73,64,70,65,60,97,73,45,29.72,29.62,2,0,4,0.00
2013-9-7,85,72,60,70,65,60,99,77,45,29.68,29.52,3,0,5,0.00
2013-9-8,89,70,64,72,53,-100,99,65,11,29.54,29.41,916,0,916,0.00
2013-9-9,89,27,66,72,-38,-100,99,31,46,29.70,29.53,916,0,916,0.00
2013-9-10,92,78,68,76,68,-100,99,72,40,29.78,29.64,3,0,6,0.00
2013-9-11,91,71,68,74,54,-100,99,67,46,29.76,29.61,4,0,6,0.00
2013-9-12,92,78,70,78,72,69,97,80,49,29.63,29.35,3,0,5,0.05
2013-9-13,87,76,68,72,67,57,99,72,42,29.44,28.98,2,0,4,0.02
2013-9-14,78,69,60,60,56,53,84,59,39,29.69,29.43,2,0,4,0.00
2013-9-15,82,66,55,65,58,-100,97,73,41,29.79,29.63,3,0,5,0.00
2013-9-16,86,75,68,77,68,61,99,76,43,29.73,29.58,2,0,5,0.20
2013-9-17,79,69,60,62,58,54,88,63,38,29.86,29.69,3,0,6,0.01
2013-9-18,62,56,56,55,53,53,85,84,71,29.85,29.67,2,0,4,0.00
2013-9-19,56,54,56,53,48,-100,85,82,85,29.75,29.59,2,0,4,0.00
2013-9-20,56,44,56,53,22,-100,85,68,85,29.64,29.47,2,0,4,0.21
2013-9-21,56,56,56,53,53,53,85,85,85,29.52,28.57,4,0,6,0.34
2013-9-22,56,52,56,53,42,-100,85,79,85,29.44,29.25,2,0,4,0.74
2013-9-23,56,32,56,53,-14,-100,85,48,85,29.62,29.41,2,0,5,0.01
2013-9-24,56,10,56,53,-72,-100,85,16,85,29.66,29.49,916,0,916,0.00
2013-9-25,56,10,56,53,-73,-100,85,15,85,29.51,29.42,916,0,916,0.00
2013-9-26,56,32,56,53,-11,-100,85,49,85,29.58,29.39,2,0,4,0.00
2013-9-27,-200,0,200,-100,-100,-100,0,0,100,29.74,29.55,916,0,916,0.00
2013-9-28,56,15,56,53,-58,-100,85,23,85,29.81,29.67,916,0,916,0.00
2013-9-29,-200,0,200,-100,-100,-100,0,0,100,29.72,29.55,916,0,916,0.00
2013-9-30,-200,0,200,-100,-100,-100,0,0,100,29.66,29.55,916,0,916,0.00
2013-10-1,-200,0,200,-100,-100,-100,0,0,100,29.68,29.56,916,0,916,0.00
2013-10-2,-200,0,200,-100,-100,-100,0,0,100,29.69,29.58,916,0,916,0.00
2013-10-3,-200,0,200,-100,-100,-100,0,0,100,29.68,29.60,916,0,916,0.00
2013-10-4,-200,0,200,-100,-100,-100,0,0,100,29.69,29.55,916,0,916,0.00
2013-10-5,-200,0,200,-100,-100,-100,0,0,100,29.67,29.53,916,0,916,0.00
2013-10-6,-200,0,200,-100,-100,-100,0,0,100,29.62,29.48,916,0,916,0.00
2013-10-7,-200,0,200,-100,-100,-100,0,0,100,29.53,29.36,916,0,916,0.00
2013-10-8,-200,0,200,-100,-100,-100,0,0,100,29.74,29.52,916,0,916,0.00
2013-10-9,-200,0,200,-100,-100,-100,0,0,100,29.73,29.61,916,0,916,0.00
2013-10-10,-200,0,200,-100,-100,-100,0,0,100,29.63,29.45,916,0,916,0.00
2013-10-11,-200,0,200,-100,-100,-100,0,0,100,29.52,29.42,916,0,916,0.00
2013-10-12,-200,0,200,-100,-100,-100,0,0,100,29.63,29.47,916,0,916,0.00
2013-10-13,-200,0,200,-100,-100,-100,0,0,100,29.75,29.62,916,0,916,0.00
2013-10-14,-200,0,200,-100,-100,-100,0,0,100,29.79,29.70,916,0,916,0.00
2013-10-15,-200,0,200,-100,-100,-100,0,0,100,29.75,29.57,916,0,916,0.00
2013-10-16,-200,0,200,-100,-100,-100,0,0,100,29.62,29.48,916,0,916,0.00
2013-10-17,-200,0,200,-100,-100,-100,0,0,100,29.53,29.40,916,0,916,0.00
2013-10-18,-200,0,200,-100,-100,-100,0,0,100,29.60,29.39,916,0,916,0.00
2013-10-19,-200,0,200,-100,-100,-100,0,0,100,29.53,29.38,916,0,916,0.00
2013-10-20,-200,0,200,-100,-100,-100,0,0,100,29.68,29.44,916,0,916,0.00
2013-10-21,-200,0,200,-100,-100,-100,0,0,100,29.72,29.56,916,0,916,0.00
2013-10-22,-200,0,200,-100,-100,-100,0,0,100,29.57,29.00,916,0,916,0.00
2013-10-23,-200,0,200,-100,-100,-100,0,0,100,29.56,29.24,916,0,916,0.00
2013-10-24,-200,0,200,-100,-100,-100,0,0,100,29.73,29.56,916,0,916,0.00
2013-10-25,-200,0,200,-100,-100,-100,0,0,100,29.92,29.73,916,0,916,0.00
2013-10-26,-200,0,200,-100,-100,-100,0,0,100,29.92,29.63,916,0,916,0.00
2013-10-27,-200,0,200,-100,-100,-100,0,0,100,29.68,29.58,916,0,916,0.00
2013-10-28,-200,0,200,-100,-100,-100,0,0,100,29.81,29.67,916,0,916,0.00
2013-10-29,-200,0,200,-100,-100,-100,0,0,100,29.89,29.80,916,0,916,0.00
2013-10-30,-200,0,200,-100,-100,-100,0,0,100,29.85,29.71,916,0,916,0.00
2013-10-31,-200,0,200,-100,-100,-100,0,0,100,29.75,29.49,916,0,916,0.00
2013-11-1,-200,0,200,-100,-100,-100,0,0,100,29.48,29.24,916,0,916,0.00
2013-11-2,-200,0,200,-100,-100,-100,0,0,100,29.50,28.96,916,0,916,0.00
2013-11-3,-200,0,200,-100,-100,-100,0,0,100,29.92,29.49,916,0,916,0.00
2013-11-4,-200,0,200,-100,-100,-100,0,0,100,30.10,29.67,916,0,916,0.00
2013-11-5,-200,0,200,-100,-100,-100,0,0,100,30.09,29.93,916,0,916,0.00
2013-11-6,-200,0,200,-100,-100,-100,0,0,100,29.98,29.62,916,0,916,0.00
2013-11-7,-200,0,200,-100,-100,-100,0,0,100,29.66,29.47,916,0,916,0.00
2013-11-8,-200,0,200,-100,-100,-100,0,0,100,29.88,29.61,916,0,916,0.00
2013-11-9,61,26,43,41,-32,-100,75,25,27,30.29,29.82,916,0,916,0.00
2013-11-10,75,54,38,48,40,35,93,58,19,30.29,30.29,2,0,4,0.00
2013-11-11,63,48,34,41,35,29,84,56,23,39.19,39.19,2,0,4,0.00
2013-11-12,64,43,34,46,36,25,92,74,37,39.19,39.19,3,0,10,0.02
2013-11-13,49,35,27,28,22,19,73,51,24,39.22,39.22,2,0,4,0.02
2013-11-14,60,39,25,33,27,21,84,56,21,39.32,39.32,2,0,6,0.00
2013-11-15,60,45,30,50,38,-100,93,71,42,39.17,39.17,1,0,2,0.00
2013-11-16,72,58,50,61,54,48,97,85,59,39.15,39.15,2,0,3,0.00
2013-11-17,72,62,53,66,59,52,99,89,63,39.18,39.18,3,0,5,0.04
2013-11-18,78,68,55,68,58,36,97,67,35,46.08,40.00,4,0,8,0.06
2013-11-19,61,50,43,36,34,32,59,44,25,44.62,39.15,3,0,6,0.01
2013-11-20,57,46,38,40,36,30,80,59,40,39.19,39.19,2,0,3,0.07
2013-11-21,64,51,42,51,45,38,85,73,54,39.19,39.19,2,0,3,0.01
2013-11-22,72,59,47,63,53,-100,93,79,63,39.19,39.19,2,0,4,0.02
2013-11-23,62,56,43,61,47,-100,99,70,39,41.84,40.00,1,0,3,0.05
2013-11-24,43,34,25,28,15,8,52,33,18,39.16,39.16,4,0,7,0.00
2013-11-25,47,32,19,21,16,12,73,42,19,69.46,40.00,3,0,8,0.00
2013-11-26,67,47,37,66,41,18,99,73,32,69.52,40.00,4,0,10,0.70
2013-11-27,55,41,30,54,39,21,99,90,57,69.52,40.00,2,0,3,0.64
2013-11-28,47,33,23,28,23,17,79,57,28,69.45,40.00,2,0,4,0.01
2013-11-29,55,37,25,36,27,22,92,63,28,69.47,40.00,2,0,3,0.01
2013-11-30,53,37,27,39,30,22,87,69,47,39.18,39.18,2,0,3,0.00
2013-12-1,62,43,28,43,36,26,95,72,34,39.33,39.33,2,0,3,0.00
2013-12-2,64,48,40,50,43,38,96,79,48,39.19,39.19,2,0,4,0.00
2013-12-3,58,47,34,49,43,32,99,81,61,39.19,39.16,2,0,4,0.00
2013-12-4,65,58,53,60,54,48,96,83,72,39.16,39.16,2,0,3,0.00
2013-12-5,68,62,53,65,60,52,99,94,86,39.16,39.16,2,0,4,0.01
2013-12-6,81,72,66,68,65,63,92,76,55,56.33,39.16,5,1,11,0.01
2013-12-7,70,51,44,66,47,36,98,83,67,56.19,40.00,2,0,5,0.21
2013-12-8,44,37,34,36,33,31,94,83,60,40.39,40.00,2,0,4,0.13
2013-12-9,46,40,35,46,39,34,99,97,94,69.47,40.00,4,0,4,0.18
2013-12-10,50,44,30,48,42,27,99,92,70,69.47,40.00,2,0,4,0.63
2013-12-11,52,36,25,36,28,22,93,69,31,39.18,39.18,2,0,5,0.01
2013-12-12,49,35,27,28,24,18,85,58,22,39.21,39.21,2,0,4,0.00
2013-12-13,55,36,23,33,25,19,81,58,20,39.21,39.16,4,0,6,0.00
2013-12-14,48,42,38,43,38,31,97,79,47,69.58,40.00,2,0,4,0.71
2013-12-15,58,44,32,48,38,-100,99,78,43,69.58,39.29,2,0,5,0.07
2013-12-16,58,41,28,40,33,26,88,70,36,39.29,39.18,2,0,5,0.01
2013-12-17,64,48,33,44,38,31,92,62,33,39.18,39.18,4,0,7,0.00
2013-12-18,53,42,30,39,26,22,73,46,20,39.18,39.18,2,0,4,0.00
2013-12-19,66,45,28,36,30,24,77,50,18,39.18,39.18,2,0,7,0.00
2013-12-20,69,54,42,57,46,34,85,69,51,39.15,39.15,3,0,5,0.00
2013-12-21,75,62,49,67,57,0,94,82,61,39.15,39.15,232,1,232,0.00
2013-12-22,80,68,65,70,59,-100,95,77,59,48.22,40.00,7,1,10,0.32
2013-12-23,68,61,46,67,60,-100,99,96,92,54.49,40.00,3,0,4,1.36
2013-12-24,50,42,30,44,32,17,93,61,40,47.78,40.00,3,0,6,0.08
2013-12-25,44,31,23,20,17,14,63,44,22,39.42,39.42,3,0,4,0.00
2013-12-26,54,37,27,39,30,19,87,71,38,39.17,39.17,2,0,3,0.05
2013-12-27,56,37,26,36,28,0,90,64,23,39.15,30.80,22,0,43,0.01
2013-12-28,62,41,25,40,29,-100,90,62,21,39.15,39.15,2,0,4,0.00
2013-12-29,62,46,43,62,39,-100,99,88,64,39.15,39.15,916,0,916,1.64
2013-12-30,55,45,35,50,42,35,99,86,60,39.15,39.15,1,0,2,0.01
2013-12-31,52,43,32,40,33,28,87,63,27,39.15,39.15,2,0,4,0.00
2014-1-1,54,40,31,35,30,27,86,64,26,39.15,39.15,3,0,6,0.00
2014-1-2,49,44,38,46,40,33,97,84,69,39.15,39.15,2,0,3,0.24